Flag for Dominican Republic Weather past 2 weeks in Puerto Plata, Dominican Republic

Now
75 °F

Passing clouds.


Feels Like: 74 °F
Forecast: 78 / 88 °F
Wind: No wind

Location: Puerto Plata International

Current Time: Oct 25, 2014 at 4:11:33 AM

Latest Report: Oct 25, 2014 at 2:00 AM


Visibility: N/A

Pressure: 29.86 "Hg

Humidity: 94%

Dew point: 73 °F

Location of Puerto PlataLocation

Historic Weather in Puerto Plata — Graph

°F

Puerto Plata temperature yesterday

Maximum temperature yesterday: 97 °F (at 2:00 PM)
Minimum temperature yesterday: 75 °F (at 8:00 AM)
Average temperature yesterday: 85 °F

Past Weeks' High & Low Weather Summary

 TemperatureHumidityPressure
High97 °F (Oct 24, 2:00 PM)100% (Oct 10, 2:00 AM)30.01 "Hg (Oct 10, 2:00 AM)
Low68 °F (Oct 21, 3:00 AM)44% (Oct 24, 2:00 PM)29.77 "Hg (Oct 24, 2:00 PM)
Average83 °F79%29.91 "Hg
* Reported Oct 10 2:00 AM — Oct 25 2:00 AM, Puerto Plata, Weather by CustomWeather, © 2014

Note: Actual official high and low records may vary slightly from our data, if they occured in-between our weather recording intervals... More about our weather records

Advertising

Puerto Plata weather history for previous 24 hours

 ConditionsComfort  
Time TempWeatherWind HumidityBarometerVisibility
2:00 AM
Oct 25
75 °FPassing clouds.No wind94%29.86 "HgN/A
11:00 PM
Oct 24
77 °FPassing clouds.No wind89%29.83 "HgN/A
8:00 PM82 °FPassing clouds.No wind79%29.83 "HgN/A
7:00 PM84 °FPassing clouds.No wind74%29.80 "HgN/A
6:00 PM88 °FPartly sunny.12 mph66%29.80 "HgN/A
5:00 PM90 °FPartly sunny.12 mph59%29.80 "HgN/A
4:00 PM93 °FBroken clouds.12 mph49%29.80 "HgN/A
3:00 PM95 °FPartly sunny.14 mph47%29.80 "HgN/A
2:00 PM97 °FPartly sunny.14 mph44%29.77 "HgN/A
1:00 PM93 °FSunny.5 mph47%29.83 "Hg10 mi
12:00 PM88 °FSunny.5 mph55%29.89 "Hg10 mi
11:00 AM88 °FSunny.5 mph55%29.89 "Hg10 mi
10:00 AM88 °FSunny.No wind59%29.92 "Hg10 mi
9:00 AM79 °FPartly sunny.No wind84%29.89 "HgN/A
8:00 AM75 °FPartly sunny.No wind89%29.89 "HgN/A
7:00 AM77 °FPassing clouds.No wind94%29.89 "HgN/A
6:00 AM77 °FPassing clouds.No wind94%29.89 "HgN/A
5:00 AM77 °FPassing clouds.No wind94%29.86 "HgN/A
Weather by CustomWeather, © 2014

See weather overviewHow to use our weather pages